Location: Sungai Ketit
(2.6833°N, 113.2333°E)
Time: 21:04:55
(UTC+00:00)

Cosmos 1238 Rocket - Pass Details

Date: 23 May 2024
Orbit: 365 x 877 km, 82.9° (Epoch: 19 June)

Event Time Altitude Azimuth Distance (km) Brightness Sun altitude
Rises 11:11:39 0° 186° (S) 2,868 6.3 -10.2°
Reaches altitude 10° 11:13:44 10° 187° (S) 2,040 5.6 -10.7°
Maximum altitude 11:18:19 79° 273° (W) 733 3.5 -11.7°
Drops below altitude 10° 11:23:37 10° 0° (N) 2,347 6.3 -13.0°
Sets 11:26:08 0° 1° (N) 3,336 7.1 -13.5°
